Location: Unspecified
(35.7250°N, 0.0000°E)
Time: 17:47:05
(UTC+00:00)

Tiros 1 - Pass Details

Date: 01 July 2019
Orbit: 630 x 664 km, 48.4° (Epoch: 17 July)

Event Time Altitude Azimuth Distance (km) Brightness Sun altitude
Rises 22:37:36 0° 300° (WNW) 2,963 11.3 -27.8°
Reaches altitude 10° 22:40:42 10° 321° (NW) 2,045 10.6 -28.0°
Maximum altitude 22:43:48 17° 2° (N) 1,619 9.9 -28.2°
Drops below altitude 10° 22:46:52 10° 44° (NE) 2,030 10.0 -28.4°
Sets 22:49:56 0° 64° (ENE) 2,932 10.6 -28.6°
